Header for Extended Forecast Station List Page

Search by: ID | Name | Date | Parm | Value | Avg | % Avg
Sort by: ID | Name | Date | Parm | Value | Avg | % Avg

Enter search or view all records.

Click on id for station plot
#IDNameDateParmValueAvg% Avg
0BULO3BULLY CREEK-BULLY CREEK DAM06-14-2021INFLOW (KAF)M0M
1MYKO3MCKAY CREEK-NEAR PILOT ROCK06-14-2021DISCHARGE (KAF)0150
2WRMO3MALHEUR-WARM SPRINGS DAM06-14-2021INFLOW (KAF)22105
3UMAO3UMATILLA-NEAR UMATILLA06-14-2021DISCHARGE (KAF)3931407
4RIDI1WILLOW CREEK-RIRIE DAM06-14-2021INFLOW (KAF)1719
5BERO3MALHEUR-AGENCY VALLEY DAM06-14-2021INFLOW (KAF)7974
6TCHW1WALLA WALLA-NEAR TOUCHET06-14-2021DISCHARGE (KAF)31027
7GIBO3UMATILLA-NEAR GIBBON06-14-2021DISCHARGE (KAF)121585
8PDTO3UMATILLA-AT PENDLETON06-14-2021DISCHARGE (KAF)131681
9TNAW1TEANAWAY-BELOW FORKS06-14-2021DISCHARGE (KAF)2318134
10PIHI1PORTNEUF-AT POCATELLO06-14-2021DISCHARGE (KAF)92437
11LWRI1LITTLE WOOD-LITTLE WOOD DAM06-14-2021INFLOW (KAF)72625
12SATI1ST MARIES-NEAR SANTA06-14-2021DISCHARGE (KAF)202870
13KADW1KACHESS-KACHESS DAM06-14-2021INFLOW (KAF)4429150
14KEDW1YAKIMA-KEECHELUS LAKE06-14-2021INFLOW (KAF)4536123
15DLGM8CLARK FORK-AT DEER LODGE06-14-2021DISCHARGE (KAF)234848
16BUDW1BUMPING-BUMPING LAKE DAM06-14-2021INFLOW (KAF)274856
17HOTI1BRUNEAU-NEAR HOT SPRINGS06-14-2021DISCHARGE (KAF)74915
18DEDI1DEADWOOD-NEAR LOWMAN06-14-2021INFLOW (KAF)185236
19OWYO3OWYHEE-OWYHEE DAM06-14-2021INFLOW (KAF)336154
20STRM8ST. REGIS-NEAR ST. REGIS06-14-2021DISCHARGE (KAF)426465
21EASW1YAKIMA-AT EASTON06-14-2021DISCHARGE (KAF)8079102
22MAGI1BIG WOOD-MAGIC DAM06-14-2021INFLOW (KAF)87910
23MILI1SNAKE-AT MILNER06-14-2021DISCHARGE (KAF)M80M
24MONO3NF JOHN DAY-AT MONUMENT06-14-2021DISCHARGE (KAF)428351
25WSRI1WEISER-NEAR WEISER06-14-2021DISCHARGE (KAF)548465
26MACI1BIG LOST-MACKAY RESERVOIR NEAR MACKAY06-14-2021INFLOW (KAF)318836
27ARDW1ENTIAT-NEAR ARDENVOIR06-14-2021DISCHARGE (KAF)769778
28HWRI1BIG LOST-AT HOWELL RANCH NEAR CHILLY06-14-2021DISCHARGE (KAF)3010030
29HODO3HOOD-NEAR TUCKER BRIDGE06-14-2021DISCHARGE (KAF)8710285
30RILW1TIETON-RIMROCK LAKE NEAR RIMROCK06-14-2021INFLOW (KAF)10710998
31SERO3JOHN DAY-AT SERVICE CK06-14-2021DISCHARGE (KAF)5311944
32HALI1BIG WOOD-AT HAILEY06-14-2021DISCHARGE (KAF)4512636
33CHEI1FALL RIVER-NEAR CHESTER06-14-2021DISCHARGE (KAF)4213032
34PARW1YAKIMA-NEAR PARKER06-14-2021DISCHARGE (KAF)12213193
35RCCM8ROCK CREEK-NEAR CLINTON06-14-2021DISCHARGE (KAF)10513876
36CSDI1NF PAYETTE-CASCADE DAM06-14-2021INFLOW (KAF)5914241
37CLUW1CLE ELUM-CLE ELUM LAKE06-14-2021INFLOW (KAF)206152136
38CLFW1NACHES-NEAR CLIFFDEL06-14-2021DISCHARGE (KAF)14115293
39IPDI1HENRYS FORK-ISLAND PARK DAM06-14-2021INFLOW (KAF)10816466
40ARAI1SF BOISE-ANDERSON RANCH DAM06-14-2021INFLOW (KAF)6216937
41UNDW1WHITE SALMON-NEAR UNDERWOOD06-14-2021DISCHARGE (KAF)15218881
42NACW1NACHES-NEAR NACHES06-14-2021DISCHARGE (KAF)21823792
43BIGI1BOISE-AT GLENWOOD BRIDGE06-14-2021DISCHARGE (KAF)18423777
44PARI1BOISE-NEAR PARMA06-14-2021DISCHARGE (KAF)18723779
45PITW1KLICKITAT-NEAR PITT06-14-2021DISCHARGE (KAF)17524073
46TEAI1TETON-NEAR ST. ANTHONY06-14-2021DISCHARGE (KAF)16324666
47PRTI1PRIEST-NEAR PRIEST RIVER06-14-2021DISCHARGE (KAF)20824984
48PATW1METHOW-NEAR PATEROS06-14-2021DISCHARGE (KAF)27036075
49ANTI1HENRYS FORK-AT ST. ANTHONY06-14-2021DISCHARGE (KAF)23636066
50BONM8BLACKFOOT-NEAR BONNER06-14-2021DISCHARGE (KAF)31636986
51TRYO3GRANDE RONDE-TROY06-14-2021DISCHARGE (KAF)28739972
52JLKW4SNAKE-JACKSON LAKE AT DAM06-14-2021INFLOW (KAF)17042140
53REXI1HENRYS FORK-AT REXBURG06-14-2021DISCHARGE (KAF)23242255
54COEI1COEUR D ALENE-COEUR D ALENE LAKE06-14-2021INFLOW (KAF)29445065
55KIOW1YAKIMA-AT KIONA06-14-2021DISCHARGE (KAF)43245794
56LAUW1KETTLE-AT LAURIER06-14-2021DISCHARGE (KAF)22750745
57CHDW1CHELAN-LAKE CHELAN DAM06-14-2021INFLOW (KAF)51054793
58BITM8BITTERROOT-NEAR MISSOULA06-14-2021DISCHARGE (KAF)30356054
59EMMI1PAYETTE-NEAR EMMETT06-14-2021DISCHARGE (KAF)32860954
60TONW1OKANOGAN-NEAR TONASKET06-14-2021DISCHARGE (KAF)46766670
61PESW1WENATCHEE-AT PESHASTIN06-14-2021DISCHARGE (KAF)60867690
62ABOM8CLARK FORK-ABOVE MISSOULA06-14-2021DISCHARGE (KAF)53069676
63WGCM8MF FLATHEAD-NEAR WEST GLACIER06-14-2021DISCHARGE (KAF)45670465
64UMTW1YAKIMA-AT UMTANUM06-14-2021DISCHARGE (KAF)721713101
65HHWM8SF FLATHEAD-HUNGRY HORSE DAM06-14-2021INFLOW (KAF)48673067
66FCFM8NF FLATHEAD-NEAR COLUMBIA FALLS06-14-2021DISCHARGE (KAF)48175364
67DWRI1NF CLEARWATER-DWORSHAK DAM06-14-2021INFLOW (KAF)47175662
68BFTI1SNAKE-NEAR BLACKFOOT06-14-2021DISCHARGE (KAF)57078273
69LLKW1SPOKANE-AT LONGLAKE06-14-2021INFLOW (KAF)50680463
70SNAI1SNAKE-AT BLACKFOOT06-14-2021DISCHARGE (KAF)59285969
71MODO3DESCHUTES-AT MOODY NR BIGGS06-14-2021DISCHARGE (KAF)1062110696
72BELM8CLARK FORK-BELOW MISSOULA06-14-2021DISCHARGE (KAF)829128664
73JKSW4SNAKE-NEAR JACKSON06-14-2021DISCHARGE (KAF)823132862
74SHYI1SNAKE-NEAR SHELLEY06-14-2021DISCHARGE (KAF)1155136085
75ORFI1CLEARWATER-AT OROFINO06-14-2021DISCHARGE (KAF)712138851
76AFRI1SNAKE-AMERICAN FALLS RESERVOIR06-14-2021INFLOW (KAF)1108142278
77ALPW4SNAKE-NEAR ALPINE06-14-2021DISCHARGE (KAF)977161960
78SRGM8CLARK FORK-AT ST REGIS06-14-2021DISCHARGE (KAF)1048166763
79SIFI1SNAKE-AB EAGLE ROCK NR IDAHO FALLS06-14-2021DISCHARGE (KAF)1329169778
80SWAI1SNAKE-BELOW SWAN FALLS06-14-2021DISCHARGE (KAF)1421196272
81PLDI1SF SNAKE-PALISADES DAM06-14-2021INFLOW (KAF)1259216858
82CFMM8FLATHEAD-AT COLUMBIA FALLS06-14-2021DISCHARGE (KAF)1606221273
83SPDI1CLEARWATER-AT SPALDING06-14-2021DISCHARGE (KAF)23182277102
84HEII1SNAKE-NEAR HEISE06-14-2021DISCHARGE (KAF)2333246895
85KERM8FLATHEAD-SELI’Š KSANKA QLISPE’ DAM06-14-2021INFLOW (KAF)1802270567
86WHBI1SALMON-AT WHITEBIRD06-14-2021DISCHARGE (KAF)1402275551
87WEII1SNAKE-AT WEISER06-14-2021DISCHARGE (KAF)2180309870
88BRNI1SNAKE-BROWNLEE DAM06-14-2021INFLOW (KAF)2306320872
89LEOI1KOOTENAI-AT LEONIA06-14-2021DISCHARGE (KAF)1867350853
90LYDM8KOOTENAI-LIBBY DAM06-14-2021INFLOW (KAF)2590372270
91NOXM8CLARK FORK-NOXON RAPIDS DAM06-14-2021INFLOW (KAF)3377484070
92CABI1CLARK FORK-CABINET GORGE DAM06-14-2021INFLOW (KAF)3712517972
93ALFW1PEND OREILLE-ALBENI FALLS DAM06-14-2021INFLOW (KAF)3792561668
94ANAW1SNAKE-NEAR ANATONE06-14-2021DISCHARGE (KAF)4376674265
95IHDW1SNAKE-ICE HARBOR DAM06-14-2021INFLOW (KAF)6699905474
96LGDW1SNAKE-LOWER GRANITE DAM06-14-2021INFLOW (KAF)6694908374
97LGSW1SNAKE-LITTLE GOOSE DAM06-14-2021INFLOW (KAF)6632910673
98LMNW1SNAKE-LOWER MONUMENTAL DAM06-14-2021INFLOW (KAF)6687912273
99CHJW1COLUMBIA-CHIEF JOSEPH DAM06-14-2021INFLOW (KAF)216202558085
100WELW1COLUMBIA-WELLS DAM06-14-2021INFLOW (KAF)223632683883
101RRHW1COLUMBIA-ROCKY REACH DAM06-14-2021INFLOW (KAF)228692745683
102GCDW1COLUMBIA-GRAND COULEE DAM06-14-2021INFLOW (KAF)218373158069
103WANW1COLUMBIA-WANAPUM DAM06-14-2021INFLOW (KAF)235493207273
104PRWW1COLUMBIA-PRIEST RAPIDS DAM06-14-2021INFLOW (KAF)235543268872
105TDAO3COLUMBIA-THE DALLES DAM06-14-2021INFLOW (KAF)317453988280
106BONO3COLUMBIA-BONNEVILLE DAM06-14-2021INFLOW (KAF)321704096579
107MCDW1COLUMBIA-MCNARY DAM06-14-2021INFLOW (KAF)308114281872
108JDAO3COLUMBIA-JOHN DAY DAM06-14-2021INFLOW (KAF)313274345672
109BFEI1KOOTENAI-AT BONNERS FERRY06-14-2021STAGE (FT)MMM
110DRMM8CLARK FORK-NR DRUMMOND06-14-2021DISCHARGE (KAF)82MM
111HOPI1PEND OREILLE-PEND OREILLE LAKE NR HOPE06-14-2021LAKE ELEVATION (FT)MMM
112SPOW1SPOKANE-AT SPOKANE06-14-2021DISCHARGE (KAF)353MM
113SJMI1ST JOE-AT ST MARIES06-14-2021STAGE (FT)MMM
114CIBW1COLUMBIA-AT INTL BOUNDARY06-14-2021DISCHARGE (KAF)21049MM
115LUCI1BOISE-LUCKY PEAK DAM06-14-2021INFLOW (KAF)544MM